Flag for Poland Weather past 2 weeks in Lublin, Poland

Now
48 °F

Sprinkles. Low clouds.


Feels Like: 43 °F
Forecast: 42 / 50 °F
Wind: 9 mph from Northwest

Location: Lublin Radawiec

Current Time: Mar 27, 2015 at 8:10:36 PM

Latest Report: Mar 27, 2015 at 7:00 PM


Visibility: 3 mi

Pressure: 29.85 "Hg

Humidity: 93%

Dew point: 46 °F

Location of LublinLocation

Historic Weather in Lublin — Graph

°F

Lublin temperature yesterday

Maximum temperature yesterday: 65 °F (at 3:00 PM)
Minimum temperature yesterday: 46 °F (at 4:00 AM)
Average temperature yesterday: 54 °F

Past Weeks' High & Low Weather Summary

 TemperatureHumidityPressure
High67 °F (Mar 27, 3:00 PM)98% (Mar 13, 8:00 PM)30.76 "Hg (Mar 13, 8:00 PM)
Low22 °F (Mar 23, 1:00 AM)34% (Mar 18, 2:00 PM)29.75 "Hg (Mar 27, 4:00 PM)
Average42 °F69%30.24 "Hg
* Reported Mar 12 6:00 PM — Mar 27 6:00 PM, Lublin, Weather by CustomWeather, © 2015

Note: Actual official high and low records may vary slightly from our data, if they occured in-between our weather recording intervals... More about our weather records

Advertising

Lublin weather history for previous 24 hours

 ConditionsComfort  
Time TempWeatherWind HumidityBarometerVisibility
6:00 PM
Fri, Mar 27
51 °FSprinkles. Low clouds.6 mph90%29.85 "Hg1 mi
5:00 PM56 °FFog.6 mph74%29.79 "Hg3 mi
4:00 PM65 °FScattered clouds.2 mph54%29.75 "Hg6 mi
3:00 PM67 °FScattered clouds.3 mph46%29.75 "Hg11 mi
2:00 PM67 °FPassing clouds.3 mph47%29.75 "Hg10 mi
1:00 PM65 °FScattered clouds.3 mph50%29.77 "Hg9 mi
12:00 PM64 °FPassing clouds.3 mph53%29.77 "Hg9 mi
11:00 AM62 °FOvercast.3 mph59%29.78 "Hg6 mi
10:00 AM63 °FScattered clouds.3 mph55%29.76 "Hg6 mi
9:00 AM59 °FHaze.3 mph63%29.77 "Hg6 mi
8:00 AM53 °FFog.2 mph69%29.79 "Hg5 mi
7:00 AM49 °FFog.2 mph79%29.79 "Hg5 mi
6:00 AM47 °FFog.2 mph81%29.79 "Hg5 mi
5:00 AM47 °FFog.1 mph81%29.78 "Hg5 mi
3:00 AM48 °FOvercast.2 mph80%29.78 "Hg6 mi
2:00 AM48 °FOvercast.1 mph80%29.79 "Hg6 mi
1:00 AM48 °FClear.3 mph80%29.80 "Hg6 mi
12:00 AM50 °FOvercast.2 mph78%29.80 "Hg6 mi
11:00 PM
Thu, Mar 26
51 °FOvercast.3 mph77%29.80 "Hg6 mi
9:00 PM53 °FOvercast.1 mph70%29.80 "Hg6 mi
8:00 PM54 °FOvercast.1 mph69%29.80 "Hg6 mi
Weather by CustomWeather, © 2015

See weather overviewHow to use our weather pages